Weather History for KBIL - May, 2012

Change the Weather History Date:

Thursday, May 31, 2012

  Actual Average Record
Temperature  
Mean Temperature 61 °F 60 °F  
Max Temperature 73 °F 72 °F 92 °F (1940)
Min Temperature 48 °F 48 °F 32 °F (1951)
Degree Days  
Heating Degree Days 4 6  
Month to date heating degree days 326 309  
Since 1 July heating degree days 5831 6686  
Cooling Degree Days 0 1  
Month to date cooling degree days 20 16  
Year to date cooling degree days 34 17  
Growing Degree Days 10 (Base 50)    
Moisture  
Dew Point 42 °F    
Average Humidity 56    
Maximum Humidity 80    
Minimum Humidity 31    
Precipitation  
Precipitation 0.01 in 0.08 in 0.90 in (1951)
Month to date precipitation 1.96 2.18  
Year to date precipitation 4.15 5.86  
Snow  
Snow 0.00 in 0.00 in 4.00 in (1951)
Month to date snowfall 3.5 2.0  
Since 1 July snowfall 38.6 55.0  
Snow Depth 0.00 in    
Sea Level Pressure  
Sea Level Pressure 30.03 in    
Wind  
Wind Speed 7 mph (SW)    
Max Wind Speed 15 mph    
Max Gust Speed 18 mph    
Visibility 10 miles    
Events Rain    
T = Trace of Precipitation, MM = Missing Value Source: NWS Daily Summary

Daily Weather History Graph

Daily Weather History Graph

Search for Another Location

Airport or City:

Trip Planner

Search our weather history database for the weather conditions in past years. The results will help you decide how hot, cold, wet, or windy it might be!

Date:

Astronomy

May. 31, 2012 Rise Set
Actual Time 5:27 AM MDT 8:56 PM MDT
Civil Twilight 4:50 AM MDT 9:33 PM MDT
Nautical Twilight 4:01 AM MDT 10:22 PM MDT
Astronomical Twilight 2:58 AM MDT 11:26 PM MDT
Moon 4:39 PM MDT (5/31) 2:40 AM MDT (5/31)
Length of Visible Light 16h 42m
Length of Day
15h 28m
Waxing Gibbous, 81% of the Moon is Illuminated
May 31
Waxing Gibbous
Jun 4
Full
Jun 11
Last Quarter
Jun 19
New
Jun 26
First Quarter

Hourly Weather History & Observations

Time (MDT) Temp. Dew Point Humidity Pressure Visibility Wind Dir Wind Speed Gust Speed Precip Events Conditions
12:53 AM 53.1 °F 37.0 °F 55% 30.09 in 10.0 mi SSW 3.5 mph - N/A   Scattered Clouds
1:53 AM 53.1 °F 37.0 °F 55% 30.10 in 10.0 mi SSW 6.9 mph - N/A   Mostly Cloudy
2:53 AM 48.9 °F 37.0 °F 64% 30.11 in 10.0 mi West 9.2 mph - N/A   Partly Cloudy
3:53 AM 51.1 °F 37.0 °F 59% 30.11 in 10.0 mi WSW 5.8 mph - N/A   Scattered Clouds
4:53 AM 48.9 °F 37.0 °F 64% 30.11 in 10.0 mi SSW 5.8 mph - N/A   Scattered Clouds
5:53 AM 48.0 °F 39.0 °F 71% 30.12 in 10.0 mi SSW 6.9 mph - N/A   Scattered Clouds
6:53 AM 48.9 °F 39.0 °F 69% 30.11 in 10.0 mi SW 11.5 mph - N/A   Partly Cloudy
7:53 AM 52.0 °F 39.9 °F 63% 30.12 in 10.0 mi SW 11.5 mph - N/A   Partly Cloudy
8:53 AM 55.9 °F 39.0 °F 53% 30.11 in 10.0 mi SW 10.4 mph - N/A   Partly Cloudy
9:53 AM 59.0 °F 41.0 °F 51% 30.09 in 10.0 mi SW 6.9 mph - N/A   Partly Cloudy
10:53 AM 62.1 °F 39.0 °F 43% 30.07 in 10.0 mi SSW 6.9 mph - N/A   Scattered Clouds
11:53 AM 64.4 °F 39.2 °F 40% 30.08 in 10.0 mi SSW 8.1 mph - N/A   Scattered Clouds
12:53 PM 66.0 °F 41.0 °F 40% 30.02 in 10.0 mi Variable 4.6 mph - N/A   Scattered Clouds
1:53 PM 68.0 °F 39.2 °F 35% 30.03 in 10.0 mi WSW 9.2 mph 16.1 mph N/A   Scattered Clouds
2:53 PM 70.0 °F 41.0 °F 35% 29.96 in 10.0 mi SW 11.5 mph - N/A   Scattered Clouds
3:53 PM 70.0 °F 41.0 °F 35% 29.94 in 10.0 mi SSW 8.1 mph - N/A   Mostly Cloudy
4:53 PM 72.0 °F 39.0 °F 30% 29.91 in 10.0 mi WNW 11.5 mph - N/A   Overcast
5:53 PM 68.0 °F 41.0 °F 37% 29.92 in 10.0 mi NNW 3.5 mph - 0.00 in Rain Light Rain
6:53 PM 64.9 °F 43.0 °F 45% 29.95 in 10.0 mi Calm Calm - 0.00 in Rain Light Rain
7:53 PM 60.1 °F 51.1 °F 72% 29.96 in 10.0 mi NW 5.8 mph - 0.01 in Rain Light Rain
8:53 PM 60.1 °F 50.0 °F 69% 29.95 in 10.0 mi Calm Calm - 0.00 in   Overcast
9:53 PM 59.0 °F 48.9 °F 69% 29.94 in 10.0 mi Calm Calm - 0.00 in Rain Light Rain
10:53 PM 57.9 °F 51.1 °F 78% 29.95 in 10.0 mi SW 3.5 mph - 0.00 in Rain Light Rain
11:53 PM 57.9 °F 51.1 °F 78% 29.93 in 10.0 mi SSW 5.8 mph - 0.00 in Rain Light Rain